EW0747 Ljugarn SE current weather conditions

sailwx.info

Wind from 163

Air temperature 11.7° C
Dewpoint 11.2° C

Last reported at 2020-Jul-14 04:00 UTC.
Time now 2020-Jul-14 04:26 UTC

Location: N 57°20' E 018°43'.
View on Google Maps.

See reports from other nearby stations

  
Tides and Currents Weather Stations Pressure Air Temp Water Temp Dewpoint Dewpoint Depression Visibility Wind Speed Wind Dir Waves Ship Positions
date/time (UTC)wind fromknots sea level pressurealtimeterstation pressurevisibilityair tempwater tempwave heightnotes
2020-Jul-14 04:00 163 11.7
2020-Jul-14 03:46 163 11.1
2020-Jul-14 03:30 163 10.6
2020-Jul-14 03:15 163 10.6
2020-Jul-14 03:00 163 10.0
2020-Jul-14 02:45 163 10.0
2020-Jul-14 02:30 163 10.0
2020-Jul-14 02:15 163 9.4
2020-Jul-14 02:00 163 9.4
2020-Jul-14 01:45 163 9.4
2020-Jul-14 01:30 163 8.9
2020-Jul-14 01:15 163 8.9
2020-Jul-14 01:00 163 9.4
2020-Jul-14 00:48 163 9.4
2020-Jul-14 00:32 290 9.4
2020-Jul-14 00:16 290 9.4
2020-Jul-14 00:01 290 9.4
2020-Jul-13 23:52 290 10.0
2020-Jul-13 23:31 290 10.0
2020-Jul-13 23:16 290 10.6
2020-Jul-13 23:01 290 10.6
2020-Jul-13 22:46 290 11.1
2020-Jul-13 22:31 290 11.1
2020-Jul-13 21:46 290 12.8
2020-Jul-13 21:31 290 12.8
2020-Jul-13 21:16 290 13.3
2020-Jul-13 21:01 290 13.9
2020-Jul-13 20:45 290 13.9
2020-Jul-13 20:31 290 14.4
2020-Jul-13 20:16 290 15.0
2020-Jul-13 20:00 290 15.6
2020-Jul-13 19:46 290 16.1
2020-Jul-13 19:31 290 16.7
2020-Jul-13 19:16 290 17.2
2020-Jul-13 18:45 290 17.8
2020-Jul-13 18:30 290 17.8
2020-Jul-13 18:15 289 18.3
2020-Jul-13 18:00 293 18.3
2020-Jul-13 17:45 294 18.9
2020-Jul-13 17:30 147 19.4
2020-Jul-13 17:15 151 20.0
2020-Jul-13 17:00 175 0 gusting 6 20.0
2020-Jul-13 16:45 152 20.0
2020-Jul-13 16:30 137 1 gusting 6 20.0
2020-Jul-13 16:15 143 1 gusting 5 20.6
2020-Jul-13 16:00 144 20.6
2020-Jul-13 15:45 146 0 gusting 7 21.1
2020-Jul-13 15:30 159 3 gusting 10 21.1
2020-Jul-13 15:15 267 0 gusting 6 20.6
2020-Jul-13 14:45 164 1 gusting 7 20.6
2020-Jul-13 14:30 160 2 gusting 7 21.1
2020-Jul-13 14:15 090 0 gusting 7 20.0
2020-Jul-13 14:00 200 0 gusting 9 20.6
2020-Jul-13 13:30 134 20.0
2020-Jul-13 13:15 217 0 gusting 7 19.4
2020-Jul-13 12:46 153 6 gusting 16 20.0
2020-Jul-13 12:31 148 5 gusting 9 20.0
2020-Jul-13 12:16 127 2 gusting 9 18.9
2020-Jul-13 12:01 159 4 gusting 8 19.4
2020-Jul-13 11:46 148 2 gusting 10 18.9
2020-Jul-13 11:31 173 5 gusting 11 18.9
2020-Jul-13 11:16 153 5 gusting 13 19.4
2020-Jul-13 11:02 138 2 gusting 10 19.4
2020-Jul-13 10:45 161 4 gusting 10 18.9
2020-Jul-13 10:31 119 5 gusting 13 18.3
2020-Jul-13 10:15 181 1 gusting 7 18.3
2020-Jul-13 10:01 136 6 gusting 12 18.3
2020-Jul-13 09:46 123 4 gusting 10 18.9
2020-Jul-13 09:31 125 3 gusting 12 18.9
2020-Jul-13 09:16 163 6 gusting 13 17.8
2020-Jul-13 09:01 132 6 gusting 10 17.8
2020-Jul-13 08:45 103 4 gusting 12 17.8
2020-Jul-13 08:31 188 1 gusting 9 17.8
2020-Jul-13 08:15 147 5 gusting 11 17.2
2020-Jul-13 08:01 160 4 gusting 11 17.8
2020-Jul-13 07:46 156 1 gusting 6 17.8
2020-Jul-13 07:30 147 3 gusting 12 16.7
2020-Jul-13 07:15 139 5 gusting 9 17.2
2020-Jul-13 07:00 092 4 gusting 8 17.2
2020-Jul-13 06:45 147 3 gusting 9 16.7
2020-Jul-13 06:30 191 0 gusting 8 17.2
2020-Jul-13 06:15 144 4 gusting 8 16.7
2020-Jul-13 06:00 274 0 gusting 6 16.7
2020-Jul-13 05:45 137 1 gusting 9 16.1
2020-Jul-13 05:31 138 16.1
2020-Jul-13 05:16 146 15.6
2020-Jul-13 05:01 194 1 gusting 8 15.6
2020-Jul-13 04:47 183 1 gusting 7 15.0
2020-Jul-13 04:30 197 0 gusting 6 14.4
2020-Jul-13 04:16 187 13.9
2020-Jul-13 04:00 194 1 gusting 6 13.3
2020-Jul-13 03:46 198 12.8
2020-Jul-13 03:30 199 12.2
2020-Jul-13 03:15 207 11.7
2020-Jul-13 03:00 136 11.1
2020-Jul-13 02:45 198 10.6
2020-Jul-13 02:30 198 10.6
2020-Jul-13 02:15 198 10.6
2020-Jul-13 02:00 198 11.1
2020-Jul-13 01:45 200 10.6
2020-Jul-13 01:30 206 10.6
2020-Jul-13 01:15 196 10.6
2020-Jul-13 01:00 196 10.6
2020-Jul-13 00:46 196 10.6
2020-Jul-13 00:33 196 11.1
2020-Jul-13 00:16 196 11.1
2020-Jul-13 00:02 196 11.1
2020-Jul-12 23:46 196 11.7
2020-Jul-12 23:33 196 11.7
2020-Jul-12 23:16 196 12.2
2020-Jul-12 23:01 196 12.8
2020-Jul-12 22:46 196 12.8
2020-Jul-12 22:31 196 12.8
2020-Jul-12 22:15 196 13.3
2020-Jul-12 22:01 196 13.3
2020-Jul-12 21:46 191 13.3
2020-Jul-12 21:31 192 13.9
2020-Jul-12 21:16 151 13.3
2020-Jul-12 21:02 148 13.3
2020-Jul-12 20:46 148 13.3
2020-Jul-12 20:30 148 13.9
2020-Jul-12 20:15 148 14.4
2020-Jul-12 20:00 148 14.4
2020-Jul-12 19:46 148 15.0
2020-Jul-12 19:30 148 15.6
2020-Jul-12 19:16 148 16.1
2020-Jul-12 19:01 148 16.7
2020-Jul-12 18:45 148 16.7
2020-Jul-12 18:30 148 17.2
2020-Jul-12 18:15 161 17.8
2020-Jul-12 18:01 153 0 gusting 6 17.8
2020-Jul-12 17:45 141 18.3
2020-Jul-12 17:31 139 0 gusting 7 18.3
2020-Jul-12 17:15 138 1 gusting 7 18.3
2020-Jul-12 17:00 140 1 gusting 11 18.3
2020-Jul-12 16:45 146 3 gusting 11 18.9
2020-Jul-12 16:30 121 6 gusting 12 18.9
2020-Jul-12 16:15 165 6 gusting 13 19.4
2020-Jul-12 16:00 135 5 gusting 12 19.4
2020-Jul-12 15:45 135 2 gusting 12 20.0
2020-Jul-12 15:30 130 4 gusting 12 20.0
2020-Jul-12 15:15 155 1 gusting 7 19.4
2020-Jul-12 15:00 138 2 gusting 7 20.0
2020-Jul-12 14:45 215 3 gusting 12 20.6
2020-Jul-12 14:30 207 5 gusting 9 20.6
2020-Jul-12 14:15 209 20.6
2020-Jul-12 14:00 200 3 gusting 10 20.0
2020-Jul-12 13:45 211 0 gusting 8 19.4
2020-Jul-12 13:30 159 3 gusting 12 20.0
2020-Jul-12 13:15 184 1 gusting 9 20.0
2020-Jul-12 13:00 121 3 gusting 12 20.0
2020-Jul-12 12:45 242 1 gusting 10 20.0
2020-Jul-12 12:15 118 5 gusting 11 20.0
2020-Jul-12 11:46 159 5 gusting 10 19.4
2020-Jul-12 11:31 120 4 gusting 10 19.4
2020-Jul-12 11:17 194 4 gusting 11 19.4
2020-Jul-12 11:01 160 2 gusting 11 19.4
2020-Jul-12 10:47 196 5 gusting 13 18.9
2020-Jul-12 10:32 120 5 gusting 11 17.8
2020-Jul-12 10:16 126 2 gusting 7 17.8
2020-Jul-12 10:01 189 4 gusting 8 17.2
2020-Jul-12 09:46 157 3 gusting 8 17.2
2020-Jul-12 09:31 126 5 gusting 13 17.2
2020-Jul-12 09:15 126 2 gusting 10 16.7
2020-Jul-12 09:01 111 2 gusting 12 16.7
2020-Jul-12 08:46 131 7 gusting 13 16.7
2020-Jul-12 08:30 181 0 gusting 13 16.7
2020-Jul-12 08:15 121 1 gusting 7 16.1
2020-Jul-12 08:00 138 4 gusting 10 15.6
2020-Jul-12 07:45 139 4 gusting 10 15.6
2020-Jul-12 07:30 142 6 gusting 11 15.0
2020-Jul-12 07:15 134 15.0
2020-Jul-12 07:00 152 3 gusting 9 15.0
2020-Jul-12 06:45 138 6 gusting 10 15.6
2020-Jul-12 06:30 150 1 gusting 9 15.6
2020-Jul-12 06:15 150 2 gusting 10 15.0
2020-Jul-12 06:00 142 2 gusting 9 15.0
2020-Jul-12 05:45 173 5 gusting 9 15.0
2020-Jul-12 05:30 144 14.4
2020-Jul-12 05:16 163 4 gusting 12 14.4
2020-Jul-12 05:01 148 3 gusting 12 13.9
2020-Jul-12 04:46 138 0 gusting 7 13.9
2020-Jul-12 04:31 135 0 gusting 6 13.3
2020-Jul-12 04:16 157 1 gusting 7 12.8
2020-Jul-12 04:01 190 12.2